Time,TemperatureF,DewpointF,PressureIn,WindDirection,WindDirectionDegrees,WindSpeedMPH,WindSpeedGustMPH,Humidity,HourlyPrecipIn,Conditions,Clouds,dailyrainin,SoftwareType,DateUTC
2013-04-11 00:00:00,55.0,36.2,29.91,West,270,0.0,1.0,49,0.00,,---,0.00,VWS V13.01,2013-04-11 07:00:00,
2013-04-11 00:05:00,54.8,36.0,29.91,West,270,0.0,0.0,49,0.00,,---,0.00,VWS V13.01,2013-04-11 07:05:00,
2013-04-11 00:10:00,54.7,36.4,29.91,West,270,0.0,0.0,50,0.00,,---,0.00,VWS V13.01,2013-04-11 07:10:00,
2013-04-11 00:15:00,54.4,36.2,29.91,West,270,0.0,0.0,50,0.00,,---,0.00,VWS V13.01,2013-04-11 07:15:00,
2013-04-11 00:20:00,54.2,37.0,29.91,West,270,0.0,0.0,52,0.00,,---,0.00,VWS V13.01,2013-04-11 07:20:00,
2013-04-11 00:25:00,53.9,37.7,29.91,West,270,0.0,0.0,54,0.00,,---,0.00,VWS V13.01,2013-04-11 07:25:00,
2013-04-11 00:29:00,53.8,37.6,29.91,West,270,0.0,0.0,54,0.00,,---,0.00,VWS V13.01,2013-04-11 07:29:00,
2013-04-11 00:34:00,53.6,36.4,29.91,West,270,0.0,0.0,52,0.00,,---,0.00,VWS V13.01,2013-04-11 07:34:00,
2013-04-11 00:39:00,53.5,36.8,29.91,West,270,0.0,0.0,53,0.00,,---,0.00,VWS V13.01,2013-04-11 07:39:00,
2013-04-11 00:44:00,53.3,37.1,29.91,West,270,0.0,0.0,54,0.00,,---,0.00,VWS V13.01,2013-04-11 07:44:00,
2013-04-11 00:49:00,53.2,37.0,29.91,West,270,0.0,0.0,54,0.00,,---,0.00,VWS V13.01,2013-04-11 07:49:00,
2013-04-11 00:54:00,52.9,37.2,29.91,West,270,0.0,0.0,55,0.00,,---,0.00,VWS V13.01,2013-04-11 07:54:00,
2013-04-11 00:59:00,52.8,37.1,29.91,West,270,0.0,0.0,55,0.00,,---,0.00,VWS V13.01,2013-04-11 07:59:00,
2013-04-11 01:04:00,52.6,36.9,29.91,West,270,0.0,0.0,55,0.00,,---,0.00,VWS V13.01,2013-04-11 08:04:00,
2013-04-11 01:09:00,52.5,36.8,29.91,West,270,0.0,0.0,55,0.00,,---,0.00,VWS V13.01,2013-04-11 08:09:00,
2013-04-11 01:14:00,52.3,36.6,29.91,West,270,0.0,0.0,55,0.00,,---,0.00,VWS V13.01,2013-04-11 08:14:00,
2013-04-11 01:19:00,52.0,36.8,29.91,West,270,0.0,0.0,56,0.00,,---,0.00,VWS V13.01,2013-04-11 08:19:00,
2013-04-11 01:24:00,51.9,36.7,29.91,West,270,0.0,0.0,56,0.00,,---,0.00,VWS V13.01,2013-04-11 08:24:00,
2013-04-11 01:29:00,51.7,36.5,29.91,West,270,0.0,0.0,56,0.00,,---,0.00,VWS V13.01,2013-04-11 08:29:00,
2013-04-11 01:34:00,51.6,36.4,29.91,West,270,0.0,0.0,56,0.00,,---,0.00,VWS V13.01,2013-04-11 08:34:00,
2013-04-11 01:39:00,51.6,36.9,29.91,West,270,0.0,0.0,57,0.00,,---,0.00,VWS V13.01,2013-04-11 08:39:00,
2013-04-11 01:44:00,51.4,36.7,29.91,West,270,0.0,0.0,57,0.00,,---,0.00,VWS V13.01,2013-04-11 08:44:00,
2013-04-11 01:49:00,51.3,37.0,29.90,West,270,0.0,0.0,58,0.00,,---,0.00,VWS V13.01,2013-04-11 08:49:00,
2013-04-11 01:54:00,51.1,37.3,29.90,West,270,0.0,0.0,59,0.00,,---,0.00,VWS V13.01,2013-04-11 08:54:00,
2013-04-11 01:59:00,50.8,37.0,29.90,West,270,0.0,0.0,59,0.00,,---,0.00,VWS V13.01,2013-04-11 08:59:00,
2013-04-11 02:04:00,50.7,36.5,29.90,West,270,0.0,0.0,58,0.00,,---,0.00,VWS V13.01,2013-04-11 09:04:00,
2013-04-11 02:09:00,50.5,36.3,29.90,West,270,0.0,0.0,58,0.00,,---,0.00,VWS V13.01,2013-04-11 09:09:00,
2013-04-11 02:14:00,50.5,35.8,29.90,West,270,0.0,0.0,57,0.00,,---,0.00,VWS V13.01,2013-04-11 09:14:00,
2013-04-11 02:19:00,50.4,35.8,29.90,West,270,0.0,0.0,57,0.00,,---,0.00,VWS V13.01,2013-04-11 09:19:00,
2013-04-11 02:24:00,50.4,35.8,29.90,West,270,0.0,0.0,57,0.00,,---,0.00,VWS V13.01,2013-04-11 09:24:00,
2013-04-11 02:29:00,50.2,36.4,29.90,West,270,0.0,0.0,59,0.00,,---,0.00,VWS V13.01,2013-04-11 09:29:00,
2013-04-11 02:34:00,50.1,35.9,29.89,West,270,0.0,0.0,58,0.00,,---,0.00,VWS V13.01,2013-04-11 09:34:00,
2013-04-11 02:39:00,49.9,35.7,29.89,West,270,0.0,0.0,58,0.00,,---,0.00,VWS V13.01,2013-04-11 09:39:00,
2013-04-11 02:44:00,49.8,36.1,29.89,West,270,0.0,0.0,59,0.00,,---,0.00,VWS V13.01,2013-04-11 09:44:00,
2013-04-11 02:49:00,49.8,36.5,29.89,West,270,0.0,0.0,60,0.00,,---,0.00,VWS V13.01,2013-04-11 09:49:00,
2013-04-11 02:54:00,49.6,35.9,29.89,West,270,0.0,0.0,59,0.00,,---,0.00,VWS V13.01,2013-04-11 09:54:00,
2013-04-11 02:59:00,49.6,35.9,29.89,West,270,0.0,0.0,59,0.00,,---,0.00,VWS V13.01,2013-04-11 09:59:00,
2013-04-11 03:04:00,49.5,36.2,29.88,West,270,0.0,0.0,60,0.00,,---,0.00,VWS V13.01,2013-04-11 10:04:00,
2013-04-11 03:09:00,49.5,36.2,29.88,West,270,0.0,0.0,60,0.00,,---,0.00,VWS V13.01,2013-04-11 10:09:00,
2013-04-11 03:14:00,49.4,36.1,29.88,West,270,0.0,0.0,60,0.00,,---,0.00,VWS V13.01,2013-04-11 10:14:00,
2013-04-11 03:19:00,49.2,35.9,29.88,West,270,0.0,0.0,60,0.00,,---,0.00,VWS V13.01,2013-04-11 10:19:00,
2013-04-11 03:24:00,49.1,35.8,29.88,West,270,0.0,0.0,60,0.00,,---,0.00,VWS V13.01,2013-04-11 10:24:00,
2013-04-11 03:29:00,48.9,35.6,29.88,West,270,0.0,0.0,60,0.00,,---,0.00,VWS V13.01,2013-04-11 10:29:00,
2013-04-11 03:34:00,48.9,36.1,29.88,West,270,0.0,0.0,61,0.00,,---,0.00,VWS V13.01,2013-04-11 10:34:00,
2013-04-11 03:39:00,48.8,36.4,29.88,West,270,0.0,0.0,62,0.00,,---,0.00,VWS V13.01,2013-04-11 10:39:00,
2013-04-11 03:44:00,48.6,36.2,29.88,West,270,0.0,0.0,62,0.00,,---,0.00,VWS V13.01,2013-04-11 10:44:00,
2013-04-11 03:49:00,48.5,35.7,29.87,West,270,0.0,0.0,61,0.00,,---,0.00,VWS V13.01,2013-04-11 10:49:00,
2013-04-11 03:54:00,48.3,35.9,29.87,West,270,0.0,0.0,62,0.00,,---,0.00,VWS V13.01,2013-04-11 10:54:00,
2013-04-11 03:59:00,48.3,36.7,29.87,West,270,0.0,0.0,64,0.00,,---,0.00,VWS V13.01,2013-04-11 10:59:00,
2013-04-11 04:04:00,48.2,36.6,29.88,West,270,0.0,0.0,64,0.00,,---,0.00,VWS V13.01,2013-04-11 11:04:00,
2013-04-11 04:09:00,48.0,36.4,29.88,West,270,0.0,0.0,64,0.00,,---,0.00,VWS V13.01,2013-04-11 11:09:00,
2013-04-11 04:14:00,47.9,36.7,29.88,West,270,0.0,0.0,65,0.00,,---,0.00,VWS V13.01,2013-04-11 11:14:00,
2013-04-11 04:19:00,47.7,36.5,29.88,West,270,0.0,0.0,65,0.00,,---,0.00,VWS V13.01,2013-04-11 11:19:00,
2013-04-11 04:24:00,47.6,37.2,29.88,West,270,0.0,0.0,67,0.00,,---,0.00,VWS V13.01,2013-04-11 11:24:00,
2013-04-11 04:29:00,47.4,37.0,29.88,West,270,0.0,0.0,67,0.00,,---,0.00,VWS V13.01,2013-04-11 11:29:00,
2013-04-11 04:34:00,47.4,37.0,29.88,West,270,0.0,0.0,67,0.00,,---,0.00,VWS V13.01,2013-04-11 11:34:00,
2013-04-11 04:39:00,47.3,37.3,29.88,West,270,0.0,0.0,68,0.00,,---,0.00,VWS V13.01,2013-04-11 11:39:00,
2013-04-11 04:44:00,47.1,37.1,29.88,West,270,0.0,0.0,68,0.00,,---,0.00,VWS V13.01,2013-04-11 11:44:00,
2013-04-11 04:49:00,47.0,37.4,29.88,West,270,0.0,0.0,69,0.00,,---,0.00,VWS V13.01,2013-04-11 11:49:00,
2013-04-11 04:54:00,46.8,37.2,29.88,West,270,0.0,0.0,69,0.00,,---,0.00,VWS V13.01,2013-04-11 11:54:00,
2013-04-11 04:59:00,46.7,36.7,29.88,West,270,0.0,0.0,68,0.00,,---,0.00,VWS V13.01,2013-04-11 11:59:00,
2013-04-11 05:04:00,46.7,36.7,29.88,West,270,0.0,0.0,68,0.00,,---,0.00,VWS V13.01,2013-04-11 12:04:00,
2013-04-11 05:09:00,46.5,36.5,29.88,West,270,0.0,0.0,68,0.00,,---,0.00,VWS V13.01,2013-04-11 12:09:00,
2013-04-11 05:14:00,46.4,36.4,29.88,West,270,0.0,0.0,68,0.00,,---,0.00,VWS V13.01,2013-04-11 12:14:00,
2013-04-11 05:19:00,46.4,36.4,29.87,West,270,0.0,0.0,68,0.00,,---,0.00,VWS V13.01,2013-04-11 12:19:00,
2013-04-11 05:24:00,46.5,36.9,29.87,West,270,0.0,0.0,69,0.00,,---,0.00,VWS V13.01,2013-04-11 12:24:00,
2013-04-11 05:29:00,46.5,37.6,29.87,West,270,0.0,0.0,71,0.00,,---,0.00,VWS V13.01,2013-04-11 12:29:00,
2013-04-11 05:34:00,46.5,37.3,29.87,West,270,0.0,0.0,70,0.00,,---,0.00,VWS V13.01,2013-04-11 12:34:00,
2013-04-11 05:39:00,46.5,37.6,29.87,West,270,0.0,0.0,71,0.00,,---,0.00,VWS V13.01,2013-04-11 12:39:00,
2013-04-11 05:44:00,46.4,37.5,29.87,West,270,0.0,0.0,71,0.00,,---,0.00,VWS V13.01,2013-04-11 12:44:00,
2013-04-11 05:49:00,46.2,37.3,29.87,West,270,0.0,0.0,71,0.00,,---,0.00,VWS V13.01,2013-04-11 12:49:00,
2013-04-11 05:54:00,46.2,37.7,29.87,West,270,0.0,0.0,72,0.00,,---,0.00,VWS V13.01,2013-04-11 12:54:00,
2013-04-11 05:59:00,46.2,37.7,29.87,West,270,0.0,0.0,72,0.00,,---,0.00,VWS V13.01,2013-04-11 12:59:00,
2013-04-11 06:04:00,46.2,38.4,29.87,West,270,0.0,0.0,74,0.00,,---,0.00,VWS V13.01,2013-04-11 13:04:00,
2013-04-11 06:09:00,46.1,37.9,29.87,West,270,0.0,0.0,73,0.00,,---,0.00,VWS V13.01,2013-04-11 13:09:00,
2013-04-11 06:14:00,46.1,38.6,29.87,West,270,0.0,0.0,75,0.00,,---,0.00,VWS V13.01,2013-04-11 13:14:00,
2013-04-11 06:19:00,45.8,37.7,29.88,West,270,0.0,0.0,73,0.00,,---,0.00,VWS V13.01,2013-04-11 13:19:00,
2013-04-11 06:24:00,45.7,37.5,29.88,West,270,0.0,0.0,73,0.00,,---,0.00,VWS V13.01,2013-04-11 13:24:00,
2013-04-11 06:29:00,45.8,38.7,29.88,West,270,0.0,0.0,76,0.00,,---,0.00,VWS V13.01,2013-04-11 13:29:00,
2013-04-11 06:34:00,45.8,38.7,29.88,West,270,0.0,0.0,76,0.00,,---,0.00,VWS V13.01,2013-04-11 13:34:00,
2013-04-11 06:39:00,45.7,38.9,29.88,West,270,0.0,0.0,77,0.00,,---,0.00,VWS V13.01,2013-04-11 13:39:00,
2013-04-11 06:44:00,45.7,38.9,29.88,West,270,0.0,0.0,77,0.00,,---,0.00,VWS V13.01,2013-04-11 13:44:00,
2013-04-11 06:49:00,45.5,38.7,29.88,West,270,0.0,0.0,77,0.00,,---,0.00,VWS V13.01,2013-04-11 13:49:00,
2013-04-11 06:54:00,45.5,38.7,29.88,West,270,0.0,0.0,77,0.00,,---,0.00,VWS V13.01,2013-04-11 13:54:00,
2013-04-11 06:59:00,45.4,38.6,29.88,West,270,0.0,0.0,77,0.00,,---,0.00,VWS V13.01,2013-04-11 13:59:00,
2013-04-11 07:04:00,45.4,38.6,29.88,West,270,0.0,0.0,77,0.00,,---,0.00,VWS V13.01,2013-04-11 14:04:00,
2013-04-11 07:09:00,45.5,38.4,29.88,West,270,0.0,0.0,76,0.00,,---,0.00,VWS V13.01,2013-04-11 14:09:00,
2013-04-11 07:14:00,45.7,38.6,29.88,West,270,0.0,0.0,76,0.00,,---,0.00,VWS V13.01,2013-04-11 14:14:00,
2013-04-11 07:19:00,46.0,39.2,29.88,West,270,0.0,0.0,77,0.00,,---,0.00,VWS V13.01,2013-04-11 14:19:00,
2013-04-11 07:24:00,46.4,39.3,29.88,West,270,0.0,0.0,76,0.00,,---,0.00,VWS V13.01,2013-04-11 14:24:00,
2013-04-11 07:29:00,47.0,38.8,29.88,West,270,0.0,0.0,73,0.00,,---,0.00,VWS V13.01,2013-04-11 14:29:00,
2013-04-11 07:30:00,75.8,56.4,29.75,East,90,0.0,4.0,51,0.00,,---,0.00,VWS V13.01,2013-04-11 14:30:00,
2013-04-11 07:34:00,47.3,38.7,29.88,West,270,0.0,0.0,72,0.00,,---,0.00,VWS V13.01,2013-04-11 14:34:00,
2013-04-11 07:39:00,47.7,39.1,29.88,West,270,0.0,0.0,72,0.00,,---,0.00,VWS V13.01,2013-04-11 14:39:00,
2013-04-11 07:44:00,48.2,40.0,29.88,West,270,0.0,0.0,73,0.00,,---,0.00,VWS V13.01,2013-04-11 14:44:00,
2013-04-11 07:49:00,48.8,39.5,29.88,West,270,0.0,0.0,70,0.00,,---,0.00,VWS V13.01,2013-04-11 14:49:00,
2013-04-11 07:54:00,49.4,40.4,29.88,West,270,0.0,0.0,71,0.00,,---,0.00,VWS V13.01,2013-04-11 14:54:00,
2013-04-11 07:59:00,49.8,40.8,29.88,West,270,0.0,0.0,71,0.00,,---,0.00,VWS V13.01,2013-04-11 14:59:00,
2013-04-11 08:04:00,50.5,40.3,29.88,West,270,0.0,0.0,68,0.00,,---,0.00,VWS V13.01,2013-04-11 15:04:00,
2013-04-11 08:09:00,51.1,40.2,29.88,West,270,0.0,0.0,66,0.00,,---,0.00,VWS V13.01,2013-04-11 15:09:00,
2013-04-11 08:14:00,51.9,40.5,29.88,West,270,0.0,0.0,65,0.00,,---,0.00,VWS V13.01,2013-04-11 15:14:00,
2013-04-11 08:19:00,52.6,40.4,29.88,West,270,0.0,0.0,63,0.00,,---,0.00,VWS V13.01,2013-04-11 15:19:00,
2013-04-11 08:24:00,53.5,40.8,29.88,West,270,0.0,0.0,62,0.00,,---,0.00,VWS V13.01,2013-04-11 15:24:00,
2013-04-11 08:29:00,54.1,40.5,29.88,West,270,0.0,0.0,60,0.00,,---,0.00,VWS V13.01,2013-04-11 15:29:00,
2013-04-11 08:34:00,55.0,41.4,29.88,West,270,0.0,0.0,60,0.00,,---,0.00,VWS V13.01,2013-04-11 15:34:00,
2013-04-11 08:39:00,56.0,41.9,29.88,West,270,0.0,0.0,59,0.00,,---,0.00,VWS V13.01,2013-04-11 15:39:00,
2013-04-11 08:44:00,57.0,40.5,29.88,West,270,0.0,0.0,54,0.00,,---,0.00,VWS V13.01,2013-04-11 15:44:00,
2013-04-11 08:49:00,58.1,41.6,29.87,NNW,335,0.0,3.0,54,0.00,,---,0.00,VWS V13.01,2013-04-11 15:49:00,
2013-04-11 08:54:00,59.3,40.2,29.87,NNW,335,0.0,3.0,49,0.00,,---,0.00,VWS V13.01,2013-04-11 15:54:00,
2013-04-11 08:59:00,60.7,40.4,29.87,NNW,335,0.0,3.0,47,0.00,,---,0.00,VWS V13.01,2013-04-11 15:59:00,
2013-04-11 09:04:00,61.6,40.1,29.86,NNW,335,1.0,1.0,45,0.00,,---,0.00,VWS V13.01,2013-04-11 16:04:00,
2013-04-11 09:09:00,62.9,41.3,29.86,NNW,335,0.0,1.0,45,0.00,,---,0.00,VWS V13.01,2013-04-11 16:09:00,
2013-04-11 09:14:00,63.9,39.8,29.86,NNE,28,0.0,1.0,41,0.00,,---,0.00,VWS V13.01,2013-04-11 16:14:00,
2013-04-11 09:19:00,64.3,39.5,29.86,NNE,28,0.0,1.0,40,0.00,,---,0.00,VWS V13.01,2013-04-11 16:19:00,
2013-04-11 09:24:00,65.0,38.8,29.86,NE,56,0.0,1.0,38,0.00,,---,0.00,VWS V13.01,2013-04-11 16:24:00,
2013-04-11 09:29:00,65.5,38.6,29.86,East,96,3.0,3.0,37,0.00,,---,0.00,VWS V13.01,2013-04-11 16:29:00,
2013-04-11 09:34:00,66.1,37.7,29.85,North,0,0.0,1.0,35,0.00,,---,0.00,VWS V13.01,2013-04-11 16:34:00,
2013-04-11 09:39:00,66.4,37.2,29.85,East,92,0.0,3.0,34,0.00,,---,0.00,VWS V13.01,2013-04-11 16:39:00,
2013-04-11 09:44:00,66.8,37.6,29.85,East,88,2.0,3.0,34,0.00,,---,0.00,VWS V13.01,2013-04-11 16:44:00,
2013-04-11 09:49:00,67.3,38.0,29.85,NE,49,0.0,4.0,34,0.00,,---,0.00,VWS V13.01,2013-04-11 16:49:00,
2013-04-11 09:54:00,67.6,37.5,29.85,North,8,0.0,4.0,33,0.00,,---,0.00,VWS V13.01,2013-04-11 16:54:00,
2013-04-11 09:59:00,68.1,37.2,29.85,ENE,75,0.0,4.0,32,0.00,,---,0.00,VWS V13.01,2013-04-11 16:59:00,
2013-04-11 10:04:00,68.3,36.5,29.85,NE,48,0.0,0.0,31,0.00,,---,0.00,VWS V13.01,2013-04-11 17:04:00,
2013-04-11 10:09:00,68.4,35.8,29.85,East,89,0.0,3.0,30,0.00,,---,0.00,VWS V13.01,2013-04-11 17:09:00,
2013-04-11 10:14:00,68.8,37.8,29.85,East,89,0.0,3.0,32,0.00,,---,0.00,VWS V13.01,2013-04-11 17:14:00,
2013-04-11 10:19:00,69.1,37.2,29.84,East,89,0.0,3.0,31,0.00,,---,0.00,VWS V13.01,2013-04-11 17:19:00,
2013-04-11 10:24:00,69.6,38.5,29.84,East,85,1.0,3.0,32,0.00,,---,0.00,VWS V13.01,2013-04-11 17:24:00,
2013-04-11 10:29:00,69.8,37.8,29.84,East,85,0.0,3.0,31,0.00,,---,0.00,VWS V13.01,2013-04-11 17:29:00,
2013-04-11 10:34:00,70.1,37.3,29.84,North,0,2.0,2.0,30,0.00,,---,0.00,VWS V13.01,2013-04-11 17:34:00,
2013-04-11 10:39:00,70.1,38.1,29.84,WNW,301,0.0,2.0,31,0.00,,---,0.00,VWS V13.01,2013-04-11 17:39:00,
2013-04-11 10:44:00,70.3,39.1,29.84,NW,315,0.0,2.0,32,0.00,,---,0.00,VWS V13.01,2013-04-11 17:44:00,
2013-04-11 10:49:00,70.9,37.1,29.83,East,93,0.0,2.0,29,0.00,,---,0.00,VWS V13.01,2013-04-11 17:49:00,
2013-04-11 10:54:00,71.1,37.3,29.83,East,93,0.0,2.0,29,0.00,,---,0.00,VWS V13.01,2013-04-11 17:54:00,
2013-04-11 10:59:00,71.1,39.8,29.83,East,93,0.0,2.0,32,0.00,,---,0.00,VWS V13.01,2013-04-11 17:59:00,
2013-04-11 11:04:00,71.5,37.6,29.82,North,7,0.0,0.0,29,0.00,,---,0.00,VWS V13.01,2013-04-11 18:04:00,
2013-04-11 11:09:00,71.8,37.9,29.82,North,10,0.0,0.0,29,0.00,,---,0.00,VWS V13.01,2013-04-11 18:09:00,
2013-04-11 11:14:00,72.8,38.7,29.82,North,0,0.0,2.0,29,0.00,,---,0.00,VWS V13.01,2013-04-11 18:14:00,
2013-04-11 11:19:00,73.3,39.2,29.82,North,0,0.0,2.0,29,0.00,,---,0.00,VWS V13.01,2013-04-11 18:19:00,
2013-04-11 11:24:00,73.9,37.8,29.82,ENE,66,0.0,2.0,27,0.00,,---,0.00,VWS V13.01,2013-04-11 18:24:00,
2013-04-11 11:29:00,74.4,39.2,29.82,WNW,282,3.0,5.0,28,0.00,,---,0.00,VWS V13.01,2013-04-11 18:29:00,
2013-04-11 11:34:00,74.7,39.5,29.81,East,88,5.0,5.0,28,0.00,,---,0.00,VWS V13.01,2013-04-11 18:34:00,
2013-04-11 11:39:00,74.9,37.7,29.81,East,86,0.0,5.0,26,0.00,,---,0.00,VWS V13.01,2013-04-11 18:39:00,
2013-04-11 11:44:00,74.6,38.5,29.81,East,86,0.0,5.0,27,0.00,,---,0.00,VWS V13.01,2013-04-11 18:44:00,
2013-04-11 11:49:00,74.7,38.5,29.80,East,83,1.0,5.0,27,0.00,,---,0.00,VWS V13.01,2013-04-11 18:49:00,
2013-04-11 11:54:00,74.9,37.7,29.80,North,4,0.0,5.0,26,0.00,,---,0.00,VWS V13.01,2013-04-11 18:54:00,
2013-04-11 11:59:00,75.4,38.2,29.80,East,93,0.0,5.0,26,0.00,,---,0.00,VWS V13.01,2013-04-11 18:59:00,
2013-04-11 12:04:00,76.0,37.7,29.79,NNW,328,0.0,2.0,25,0.00,,---,0.00,VWS V13.01,2013-04-11 19:04:00,
2013-04-11 12:09:00,76.1,37.8,29.79,North,0,0.0,5.0,25,0.00,,---,0.00,VWS V13.01,2013-04-11 19:09:00,
2013-04-11 12:14:00,76.1,36.7,29.79,North,353,0.0,5.0,24,0.00,,---,0.00,VWS V13.01,2013-04-11 19:14:00,
2013-04-11 12:19:00,76.5,38.1,29.79,North,354,0.0,5.0,25,0.00,,---,0.00,VWS V13.01,2013-04-11 19:19:00,
2013-04-11 12:24:00,77.0,37.5,29.79,North,352,2.0,5.0,24,0.00,,---,0.00,VWS V13.01,2013-04-11 19:24:00,
2013-04-11 12:29:00,77.0,38.5,29.79,ENE,68,6.0,6.0,25,0.00,,---,0.00,VWS V13.01,2013-04-11 19:29:00,
2013-04-11 12:34:00,77.0,38.5,29.78,East,89,1.0,1.0,25,0.00,,---,0.00,VWS V13.01,2013-04-11 19:34:00,
2013-04-11 12:39:00,77.0,39.5,29.78,ESE,104,0.0,2.0,26,0.00,,---,0.00,VWS V13.01,2013-04-11 19:39:00,
2013-04-11 12:44:00,77.0,41.4,29.78,East,100,0.0,2.0,28,0.00,,---,0.00,VWS V13.01,2013-04-11 19:44:00,
2013-04-11 12:49:00,77.6,41.0,29.77,East,88,2.0,2.0,27,0.00,,---,0.00,VWS V13.01,2013-04-11 19:49:00,
2013-04-11 12:54:00,77.7,41.1,29.77,ESE,119,0.0,2.0,27,0.00,,---,0.00,VWS V13.01,2013-04-11 19:54:00,
2013-04-11 12:59:00,77.9,42.2,29.77,ESE,119,0.0,2.0,28,0.00,,---,0.00,VWS V13.01,2013-04-11 19:59:00,
2013-04-11 13:04:00,78.3,41.6,29.75,ESE,109,0.0,0.0,27,0.00,,---,0.00,VWS V13.01,2013-04-11 20:04:00,
2013-04-11 13:09:00,78.6,41.9,29.75,WNW,285,5.0,5.0,27,0.00,,---,0.00,VWS V13.01,2013-04-11 20:09:00,
2013-04-11 13:14:00,78.5,41.8,29.75,NW,304,0.0,5.0,27,0.00,,---,0.00,VWS V13.01,2013-04-11 20:14:00,
2013-04-11 13:19:00,78.8,42.0,29.75,West,275,0.0,5.0,27,0.00,,---,0.00,VWS V13.01,2013-04-11 20:19:00,
2013-04-11 13:24:00,79.0,43.2,29.75,ESE,116,0.0,5.0,28,0.00,,---,0.00,VWS V13.01,2013-04-11 20:24:00,
2013-04-11 13:29:00,79.4,43.5,29.75,ESE,112,0.0,5.0,28,0.00,,---,0.00,VWS V13.01,2013-04-11 20:29:00,
2013-04-11 13:34:00,79.2,41.4,29.74,SE,137,2.0,7.0,26,0.00,,---,0.00,VWS V13.01,2013-04-11 20:34:00,
2013-04-11 13:39:00,79.0,44.1,29.74,ESE,107,0.0,7.0,29,0.00,,---,0.00,VWS V13.01,2013-04-11 20:39:00,
2013-04-11 13:44:00,78.8,43.0,29.74,East,92,5.0,7.0,28,0.00,,---,0.00,VWS V13.01,2013-04-11 20:44:00,
2013-04-11 13:49:00,78.1,41.4,29.74,SE,128,0.0,7.0,27,0.00,,---,0.00,VWS V13.01,2013-04-11 20:49:00,
2013-04-11 13:54:00,77.7,44.7,29.74,SE,124,0.0,7.0,31,0.00,,---,0.00,VWS V13.01,2013-04-11 20:54:00,
2013-04-11 13:59:00,77.7,42.9,29.74,SE,127,0.0,7.0,29,0.00,,---,0.00,VWS V13.01,2013-04-11 20:59:00,
2013-04-11 14:04:00,78.1,42.4,29.74,SE,127,0.0,0.0,28,0.00,,---,0.00,VWS V13.01,2013-04-11 21:04:00,
2013-04-11 14:09:00,78.3,43.5,29.74,SE,133,0.0,1.0,29,0.00,,---,0.00,VWS V13.01,2013-04-11 21:09:00,
2013-04-11 14:14:00,78.3,42.5,29.74,ENE,76,0.0,1.0,28,0.00,,---,0.00,VWS V13.01,2013-04-11 21:14:00,
2013-04-11 14:19:00,78.5,41.8,29.74,ENE,78,0.0,1.0,27,0.00,,---,0.00,VWS V13.01,2013-04-11 21:19:00,
2013-04-11 14:24:00,78.3,44.3,29.74,ESE,104,1.0,3.0,30,0.00,,---,0.00,VWS V13.01,2013-04-11 21:24:00,
2013-04-11 14:29:00,78.3,43.5,29.74,East,92,0.0,3.0,29,0.00,,---,0.00,VWS V13.01,2013-04-11 21:29:00,
2013-04-11 14:34:00,78.1,43.3,29.73,ESE,114,0.0,0.0,29,0.00,,---,0.00,VWS V13.01,2013-04-11 21:34:00,
2013-04-11 14:39:00,78.1,43.3,29.73,SE,140,0.0,2.0,29,0.00,,---,0.00,VWS V13.01,2013-04-11 21:39:00,
2013-04-11 14:44:00,78.3,42.5,29.73,North,0,1.0,2.0,28,0.00,,---,0.00,VWS V13.01,2013-04-11 21:44:00,
2013-04-11 14:49:00,78.3,42.5,29.72,WSW,247,0.0,2.0,28,0.00,,---,0.00,VWS V13.01,2013-04-11 21:49:00,
2013-04-11 14:54:00,78.1,42.4,29.72,ESE,107,2.0,2.0,28,0.00,,---,0.00,VWS V13.01,2013-04-11 21:54:00,
2013-04-11 14:59:00,78.1,42.4,29.72,ESE,114,0.0,2.0,28,0.00,,---,0.00,VWS V13.01,2013-04-11 21:59:00,
2013-04-11 15:04:00,77.9,42.2,29.72,ENE,76,0.0,1.0,28,0.00,,---,0.00,VWS V13.01,2013-04-11 22:04:00,
2013-04-11 15:09:00,77.7,42.0,29.72,ESE,107,0.0,1.0,28,0.00,,---,0.00,VWS V13.01,2013-04-11 22:09:00,
2013-04-11 15:14:00,77.7,42.0,29.72,ESE,107,1.0,1.0,28,0.00,,---,0.00,VWS V13.01,2013-04-11 22:14:00,
2013-04-11 15:19:00,77.7,42.0,29.71,SE,143,0.0,3.0,28,0.00,,---,0.00,VWS V13.01,2013-04-11 22:19:00,
2013-04-11 15:24:00,77.6,42.0,29.71,West,274,0.0,3.0,28,0.00,,---,0.00,VWS V13.01,2013-04-11 22:24:00,
2013-04-11 15:29:00,77.6,42.0,29.71,West,272,0.0,3.0,28,0.00,,---,0.00,VWS V13.01,2013-04-11 22:29:00,
2013-04-11 15:34:00,77.7,39.1,29.71,ESE,116,0.0,0.0,25,0.00,,---,0.00,VWS V13.01,2013-04-11 22:34:00,
2013-04-11 15:39:00,77.9,39.3,29.71,SW,232,0.0,2.0,25,0.00,,---,0.00,VWS V13.01,2013-04-11 22:39:00,
2013-04-11 15:44:00,77.9,38.2,29.71,ESE,102,0.0,2.0,24,0.00,,---,0.00,VWS V13.01,2013-04-11 22:44:00,
2013-04-11 15:49:00,77.9,38.2,29.71,ESE,112,0.0,3.0,24,0.00,,---,0.00,VWS V13.01,2013-04-11 22:49:00,
2013-04-11 15:54:00,77.7,39.1,29.71,ESE,107,0.0,3.0,25,0.00,,---,0.00,VWS V13.01,2013-04-11 22:54:00,
2013-04-11 15:59:00,77.7,40.1,29.71,East,90,0.0,3.0,26,0.00,,---,0.00,VWS V13.01,2013-04-11 22:59:00,
2013-04-11 16:04:00,77.6,39.0,29.70,ESE,109,0.0,0.0,25,0.00,,---,0.00,VWS V13.01,2013-04-11 23:04:00,
2013-04-11 16:09:00,77.6,39.0,29.70,ESE,109,0.0,0.0,25,0.00,,---,0.00,VWS V13.01,2013-04-11 23:09:00,
2013-04-11 16:14:00,77.6,39.0,29.70,ESE,103,1.0,1.0,25,0.00,,---,0.00,VWS V13.01,2013-04-11 23:14:00,
2013-04-11 16:19:00,77.6,39.0,29.70,ESE,106,0.0,1.0,25,0.00,,---,0.00,VWS V13.01,2013-04-11 23:19:00,
2013-04-11 16:24:00,76.5,38.1,29.70,ESE,103,2.0,2.0,25,0.00,,---,0.00,VWS V13.01,2013-04-11 23:24:00,
2013-04-11 16:29:00,76.1,37.8,29.70,ESE,107,0.0,2.0,25,0.00,,---,0.00,VWS V13.01,2013-04-11 23:29:00,
2013-04-11 16:34:00,76.0,37.7,29.70,ESE,107,0.0,0.0,25,0.00,,---,0.00,VWS V13.01,2013-04-11 23:34:00,
2013-04-11 16:39:00,76.0,37.7,29.70,ESE,103,6.0,6.0,25,0.00,,---,0.00,VWS V13.01,2013-04-11 23:39:00,
2013-04-11 16:44:00,76.0,39.6,29.70,ESE,102,2.0,6.0,27,0.00,,---,0.00,VWS V13.01,2013-04-11 23:44:00,
2013-04-11 16:49:00,74.6,39.4,29.69,ESE,109,0.0,6.0,28,0.00,,---,0.00,VWS V13.01,2013-04-11 23:49:00,
2013-04-11 16:54:00,74.6,39.4,29.69,ESE,112,0.0,6.0,28,0.00,,---,0.00,VWS V13.01,2013-04-11 23:54:00,
2013-04-11 16:59:00,74.6,39.4,29.69,ESE,112,0.0,6.0,28,0.00,,---,0.00,VWS V13.01,2013-04-11 23:59:00,
2013-04-11 17:04:00,74.6,39.4,29.72,ESE,112,0.0,0.0,28,0.00,,---,0.00,VWS V13.01,2013-04-12 00:04:00,
2013-04-11 17:09:00,74.6,39.4,29.72,ESE,112,0.0,0.0,28,0.00,,---,0.00,VWS V13.01,2013-04-12 00:09:00,
2013-04-11 17:14:00,74.6,39.4,29.72,ESE,112,0.0,0.0,28,0.00,,---,0.00,VWS V13.01,2013-04-12 00:14:00,
2013-04-11 17:19:00,74.4,40.1,29.71,ESE,117,0.0,0.0,29,0.00,,---,0.00,VWS V13.01,2013-04-12 00:19:00,
2013-04-11 17:24:00,74.6,40.3,29.71,SSE,148,0.0,2.0,29,0.00,,---,0.00,VWS V13.01,2013-04-12 00:24:00,
2013-04-11 17:29:00,75.1,40.7,29.71,SSE,148,0.0,2.0,29,0.00,,---,0.00,VWS V13.01,2013-04-12 00:29:00,
2013-04-11 17:34:00,75.1,40.7,29.68,SSE,148,0.0,0.0,29,0.00,,---,0.00,VWS V13.01,2013-04-12 00:34:00,
2013-04-11 17:39:00,75.1,40.7,29.68,SSE,148,0.0,0.0,29,0.00,,---,0.00,VWS V13.01,2013-04-12 00:39:00,
2013-04-11 17:44:00,75.1,40.7,29.68,SSE,148,0.0,0.0,29,0.00,,---,0.00,VWS V13.01,2013-04-12 00:44:00,
2013-04-11 17:49:00,75.1,40.7,29.71,SSE,148,0.0,0.0,29,0.00,,---,0.00,VWS V13.01,2013-04-12 00:49:00,
2013-04-11 17:54:00,74.0,39.8,29.71,SE,127,0.0,0.0,29,0.00,,---,0.00,VWS V13.01,2013-04-12 00:54:00,
2013-04-11 17:59:00,73.5,37.5,29.71,SE,127,0.0,0.0,27,0.00,,---,0.00,VWS V13.01,2013-04-12 00:59:00,
2013-04-11 18:04:00,73.3,37.3,29.68,SE,127,0.0,0.0,27,0.00,,---,0.00,VWS V13.01,2013-04-12 01:04:00,
2013-04-11 18:09:00,73.3,37.3,29.68,SE,127,0.0,0.0,27,0.00,,---,0.00,VWS V13.01,2013-04-12 01:09:00,
2013-04-11 18:14:00,73.3,37.3,29.68,East,95,0.0,0.0,27,0.00,,---,0.00,VWS V13.01,2013-04-12 01:14:00,
2013-04-11 18:19:00,72.5,39.3,29.69,East,95,0.0,0.0,30,0.00,,---,0.00,VWS V13.01,2013-04-12 01:19:00,
2013-04-11 18:24:00,72.0,38.9,29.69,ESE,116,0.0,0.0,30,0.00,,---,0.00,VWS V13.01,2013-04-12 01:24:00,
2013-04-11 18:29:00,71.5,40.1,29.69,ESE,116,0.0,0.0,32,0.00,,---,0.00,VWS V13.01,2013-04-12 01:29:00,
2013-04-11 18:34:00,71.1,41.3,29.69,ESE,116,0.0,0.0,34,0.00,,---,0.00,VWS V13.01,2013-04-12 01:34:00,
2013-04-11 18:39:00,70.8,41.1,29.69,ESE,116,0.0,0.0,34,0.00,,---,0.00,VWS V13.01,2013-04-12 01:39:00,
2013-04-11 18:44:00,70.1,43.3,29.69,ESE,116,0.0,0.0,38,0.00,,---,0.00,VWS V13.01,2013-04-12 01:44:00,
2013-04-11 18:49:00,69.6,44.2,29.69,ESE,116,0.0,0.0,40,0.00,,---,0.00,VWS V13.01,2013-04-12 01:49:00,
2013-04-11 18:54:00,69.3,44.6,29.69,ESE,116,0.0,1.0,41,0.00,,---,0.00,VWS V13.01,2013-04-12 01:54:00,
2013-04-11 18:59:00,68.8,45.4,29.69,ESE,110,0.0,1.0,43,0.00,,---,0.00,VWS V13.01,2013-04-12 01:59:00,
2013-04-11 19:04:00,68.3,45.0,29.69,ESE,110,0.0,0.0,43,0.00,,---,0.00,VWS V13.01,2013-04-12 02:04:00,
2013-04-11 19:09:00,67.4,44.2,29.69,ESE,110,0.0,0.0,43,0.00,,---,0.00,VWS V13.01,2013-04-12 02:09:00,
2013-04-11 19:14:00,67.1,45.7,29.69,ESE,110,0.0,0.0,46,0.00,,---,0.00,VWS V13.01,2013-04-12 02:14:00,
2013-04-11 19:19:00,66.6,46.3,29.69,ESE,110,0.0,0.0,48,0.00,,---,0.00,VWS V13.01,2013-04-12 02:19:00,
2013-04-11 19:24:00,66.3,46.0,29.69,ESE,110,0.0,0.0,48,0.00,,---,0.00,VWS V13.01,2013-04-12 02:24:00,
2013-04-11 19:29:00,65.8,46.7,29.69,ESE,110,0.0,0.0,50,0.00,,---,0.00,VWS V13.01,2013-04-12 02:29:00,
2013-04-11 19:34:00,65.3,46.2,29.69,East,97,0.0,0.0,50,0.00,,---,0.00,VWS V13.01,2013-04-12 02:34:00,
2013-04-11 19:39:00,64.8,46.8,29.69,East,97,0.0,0.0,52,0.00,,---,0.00,VWS V13.01,2013-04-12 02:39:00,
2013-04-11 19:44:00,64.2,47.2,29.69,East,97,0.0,0.0,54,0.00,,---,0.00,VWS V13.01,2013-04-12 02:44:00,
2013-04-11 19:49:00,64.0,47.0,29.70,East,97,0.0,0.0,54,0.00,,---,0.00,VWS V13.01,2013-04-12 02:49:00,
2013-04-11 19:54:00,63.7,47.2,29.70,East,97,0.0,0.0,55,0.00,,---,0.00,VWS V13.01,2013-04-12 02:54:00,
2013-04-11 19:59:00,63.2,47.7,29.70,ESE,102,0.0,0.0,57,0.00,,---,0.00,VWS V13.01,2013-04-12 02:59:00,
2013-04-11 20:04:00,62.9,47.9,29.71,ESE,102,0.0,0.0,58,0.00,,---,0.00,VWS V13.01,2013-04-12 03:04:00,
2013-04-11 20:09:00,62.6,47.6,29.71,ESE,102,0.0,0.0,58,0.00,,---,0.00,VWS V13.01,2013-04-12 03:09:00,
2013-04-11 20:14:00,62.3,48.2,29.71,ESE,102,0.0,0.0,60,0.00,,---,0.00,VWS V13.01,2013-04-12 03:14:00,
2013-04-11 20:19:00,62.0,48.4,29.70,ESE,102,0.0,0.0,61,0.00,,---,0.00,VWS V13.01,2013-04-12 03:19:00,
2013-04-11 20:24:00,61.8,48.2,29.70,ESE,102,0.0,0.0,61,0.00,,---,0.00,VWS V13.01,2013-04-12 03:24:00,
2013-04-11 20:29:00,61.5,48.4,29.70,ESE,102,0.0,0.0,62,0.00,,---,0.00,VWS V13.01,2013-04-12 03:29:00,
2013-04-11 20:34:00,61.3,48.6,29.71,ESE,102,0.0,0.0,63,0.00,,---,0.00,VWS V13.01,2013-04-12 03:34:00,
2013-04-11 20:39:00,61.2,48.5,29.71,ESE,102,0.0,0.0,63,0.00,,---,0.00,VWS V13.01,2013-04-12 03:39:00,
2013-04-11 20:44:00,61.0,48.8,29.71,ESE,102,0.0,0.0,64,0.00,,---,0.00,VWS V13.01,2013-04-12 03:44:00,
2013-04-11 20:49:00,60.9,49.1,29.72,ESE,102,0.0,0.0,65,0.00,,---,0.00,VWS V13.01,2013-04-12 03:49:00,
2013-04-11 20:54:00,60.7,48.9,29.72,ESE,102,0.0,0.0,65,0.00,,---,0.00,VWS V13.01,2013-04-12 03:54:00,
2013-04-11 20:59:00,60.5,48.7,29.72,ESE,102,0.0,0.0,65,0.00,,---,0.00,VWS V13.01,2013-04-12 03:59:00,
2013-04-11 21:00:00,60.5,48.7,29.72,ESE,102,0.0,0.0,65,0.00,,---,0.00,VWS V13.01,2013-04-12 04:00:00,
2013-04-11 21:05:00,60.4,49.0,29.72,ESE,102,0.0,0.0,66,0.00,,---,0.00,VWS V13.01,2013-04-12 04:05:00,
2013-04-11 21:10:00,60.2,48.8,29.72,ESE,102,0.0,0.0,66,0.00,,---,0.00,VWS V13.01,2013-04-12 04:10:00,
2013-04-11 21:15:00,60.1,49.1,29.72,ESE,102,0.0,0.0,67,0.00,,---,0.00,VWS V13.01,2013-04-12 04:15:00,
2013-04-11 21:20:00,59.9,48.9,29.72,ESE,102,0.0,0.0,67,0.00,,---,0.00,VWS V13.01,2013-04-12 04:20:00,
2013-04-11 21:25:00,59.8,48.8,29.72,ESE,102,0.0,0.0,67,0.00,,---,0.00,VWS V13.01,2013-04-12 04:25:00,
2013-04-11 21:30:00,59.6,48.6,29.72,ESE,102,0.0,1.0,67,0.00,,---,0.00,VWS V13.01,2013-04-12 04:30:00,
2013-04-11 21:35:00,59.6,48.6,29.72,ESE,112,0.0,1.0,67,0.00,,---,0.00,VWS V13.01,2013-04-12 04:35:00,
2013-04-11 21:40:00,59.3,48.8,29.72,ESE,112,1.0,1.0,68,0.00,,---,0.00,VWS V13.01,2013-04-12 04:40:00,
2013-04-11 21:45:00,59.3,48.8,29.72,ESE,109,2.0,2.0,68,0.00,,---,0.00,VWS V13.01,2013-04-12 04:45:00,
2013-04-11 21:50:00,59.3,48.8,29.73,ESE,116,0.0,2.0,68,0.00,,---,0.00,VWS V13.01,2013-04-12 04:50:00,
2013-04-11 21:55:00,59.3,48.8,29.73,ESE,113,0.0,2.0,68,0.00,,---,0.00,VWS V13.01,2013-04-12 04:55:00,
2013-04-11 22:00:00,59.3,48.8,29.73,ESE,113,1.0,2.0,68,0.00,,---,0.00,VWS V13.01,2013-04-12 05:00:00,
2013-04-11 22:05:00,58.7,48.2,29.74,ESE,113,0.0,0.0,68,0.00,,---,0.00,VWS V13.01,2013-04-12 05:05:00,
2013-04-11 22:10:00,58.7,48.2,29.74,ESE,113,0.0,0.0,68,0.00,,---,0.00,VWS V13.01,2013-04-12 05:10:00,
2013-04-11 22:15:00,58.3,47.8,29.74,ESE,103,0.0,0.0,68,0.00,,---,0.00,VWS V13.01,2013-04-12 05:15:00,
2013-04-11 22:20:00,58.3,48.2,29.73,ESE,103,0.0,0.0,69,0.00,,---,0.00,VWS V13.01,2013-04-12 05:20:00,
2013-04-11 22:25:00,58.3,48.2,29.73,ESE,103,0.0,0.0,69,0.00,,---,0.00,VWS V13.01,2013-04-12 05:25:00,
2013-04-11 22:30:00,58.3,48.2,29.73,ESE,103,0.0,0.0,69,0.00,,---,0.00,VWS V13.01,2013-04-12 05:30:00,
2013-04-11 22:35:00,57.5,47.4,29.74,ESE,103,0.0,0.0,69,0.00,,---,0.00,VWS V13.01,2013-04-12 05:35:00,
2013-04-11 22:40:00,57.3,47.2,29.74,ESE,103,0.0,0.0,69,0.00,,---,0.00,VWS V13.01,2013-04-12 05:40:00,
2013-04-11 22:45:00,57.0,46.9,29.74,ESE,103,0.0,0.0,69,0.00,,---,0.00,VWS V13.01,2013-04-12 05:45:00,
2013-04-11 22:50:00,57.0,46.9,29.74,ESE,103,0.0,0.0,69,0.00,,---,0.00,VWS V13.01,2013-04-12 05:50:00,
2013-04-11 22:55:00,56.6,46.9,29.74,ESE,103,0.0,0.0,70,0.00,,---,0.00,VWS V13.01,2013-04-12 05:55:00,
2013-04-11 23:00:00,56.5,46.8,29.74,ESE,103,0.0,0.0,70,0.00,,---,0.00,VWS V13.01,2013-04-12 06:00:00,
2013-04-11 23:05:00,56.2,46.6,29.74,ESE,103,0.0,0.0,70,0.00,,---,0.00,VWS V13.01,2013-04-12 06:05:00,
2013-04-11 23:10:00,56.0,46.4,29.74,ESE,103,0.0,0.0,70,0.00,,---,0.00,VWS V13.01,2013-04-12 06:10:00,
2013-04-11 23:15:00,55.7,46.1,29.74,ESE,103,0.0,0.0,70,0.00,,---,0.00,VWS V13.01,2013-04-12 06:15:00,
2013-04-11 23:20:00,55.6,46.0,29.73,ESE,103,0.0,0.0,70,0.00,,---,0.00,VWS V13.01,2013-04-12 06:20:00,
2013-04-11 23:25:00,55.4,46.5,29.73,ESE,103,0.0,0.0,72,0.00,,---,0.00,VWS V13.01,2013-04-12 06:25:00,
2013-04-11 23:30:00,55.3,46.8,29.73,ESE,103,0.0,0.0,73,0.00,,---,0.00,VWS V13.01,2013-04-12 06:30:00,
2013-04-11 23:35:00,55.1,46.6,29.73,ESE,103,0.0,0.0,73,0.00,,---,0.00,VWS V13.01,2013-04-12 06:35:00,
2013-04-11 23:40:00,55.0,46.5,29.73,ESE,103,0.0,0.0,73,0.00,,---,0.00,VWS V13.01,2013-04-12 06:40:00,
2013-04-11 23:45:00,55.0,46.9,29.73,ESE,103,0.0,0.0,74,0.00,,---,0.00,VWS V13.01,2013-04-12 06:45:00,
2013-04-11 23:50:00,54.8,46.7,29.73,ESE,103,0.0,0.0,74,0.00,,---,0.00,VWS V13.01,2013-04-12 06:50:00,
2013-04-11 23:55:00,54.7,46.6,29.73,ESE,103,0.0,0.0,74,0.00,,---,0.00,VWS V13.01,2013-04-12 06:55:00,